Location: Sungai Buloh
(3.1000°N, 113.0000°E)
Time: 16:48:12
(UTC+00:00)

Cosmos 1140 Rocket - Pass Details

Date: 12 January 2026
Orbit: 739 x 763 km, 74.1° (Epoch: 10 February)

Event Time Altitude Azimuth Distance (km) Brightness Sun altitude
Rises 21:44:32 0° 189° (S) 3,174 6.9 -13.2°
Reaches altitude 10° 21:46:54 10° 187° (S) 2,247 6.1 -12.7°
Maximum altitude 21:51:58 74° 102° (ESE) 768 3.7 -11.5°
Drops below altitude 10° 21:57:01 10° 17° (NNE) 2,236 5.9 -10.3°
Sets 21:59:21 0° 16° (NNE) 3,157 6.6 -9.8°
